• In Hungary
  • List of Countries
  • For 7 days
  • Water Temperature
  • Satellite Maps
  • Weather Map
  • News
  • Weather Widgets
  • user-avatar
    Login

    Hourly Weather Perelogi

    Today, 14 December, Thursday

    Time Temperature Precipitation Wind Pressure Humidity
    00:00 -2°C° 0 mm 1 mps 746 mmHg 95%
    01:00 -2°C° 0 mm 1 mps 746 mmHg 95%
    02:00 -3°C° 0 mm 1 mps 746 mmHg 95%
    03:00 -3°C° 0 mm 1 mps 746 mmHg 95%
    04:00 -3°C° 0 mm 1 mps 746 mmHg 95%
    05:00 -4°C° 0 mm 1 mps 745 mmHg 95%
    06:00 -4°C° 0 mm 1 mps 745 mmHg 96%
    07:00 -4°C° 0 mm 1 mps 745 mmHg 96%
    08:00 -4°C° 0 mm 1 mps 745 mmHg 96%
    09:00 -4°C° 0 mm 1 mps 745 mmHg 95%
    10:00 -3°C° 0 mm 1 mps 745 mmHg 94%
    11:00 -2°C° 0 mm 1 mps 745 mmHg 94%
    12:00 -2°C° 0 mm 1 mps 744 mmHg 94%
    13:00 -2°C° 0 mm 1 mps 744 mmHg 95%
    14:00 -2°C° 0 mm 1 mps 743 mmHg 96%
    15:00 -3°C° 0 mm 1 mps 743 mmHg 96%
    16:00 -3°C° 0 mm 1 mps 743 mmHg 97%
    17:00 -3°C° 0 mm 1 mps 742 mmHg 97%
    18:00 -3°C° 0 mm 1 mps 742 mmHg 97%
    19:00 -2°C° 0 mm 1 mps 742 mmHg 97%
    20:00 -1°C° 0 mm 1 mps 741 mmHg 96%
    21:00 -1°C° 0 mm 1 mps 741 mmHg 97%
    22:00 -1°C° 0 mm 1 mps 741 mmHg 97%
    23:00 -1°C° 0 mm 1 mps 740 mmHg 97%

    Tomorrow, 15 December, Friday

    Time Temperature Precipitation Wind Pressure Humidity
    00:00 -3°C° 0 mm 2 mps 740 mmHg 97%
    01:00 -3°C° 0 mm 2 mps 740 mmHg 96%
    02:00 -3°C° 0 mm 2 mps 740 mmHg 96%
    03:00 -3°C° 0 mm 2 mps 740 mmHg 96%
    04:00 -2°C° 0 mm 2 mps 740 mmHg 95%
    05:00 -2°C° 0 mm 3 mps 739 mmHg 94%
    06:00 -2°C° 0 mm 3 mps 739 mmHg 93%
    07:00 -2°C° 0 mm 4 mps 740 mmHg 92%
    08:00 -2°C° 0 mm 4 mps 740 mmHg 91%
    09:00 -1°C° 0 mm 4 mps 740 mmHg 90%
    10:00 -1°C° 0 mm 4 mps 740 mmHg 89%
    11:00 -1°C° 0 mm 4 mps 741 mmHg 88%
    12:00 -1°C° 0 mm 4 mps 741 mmHg 88%
    13:00 -1°C° 0 mm 4 mps 741 mmHg 88%
    14:00 0°C° 0 mm 3 mps 742 mmHg 88%
    15:00 0°C° 0 mm 3 mps 742 mmHg 89%
    16:00 -1°C° 0 mm 3 mps 743 mmHg 90%
    17:00 -1°C° 0 mm 3 mps 743 mmHg 91%
    18:00 -2°C° 0 mm 3 mps 743 mmHg 92%
    19:00 -4°C° 0 mm 3 mps 743 mmHg 93%
    20:00 -3°C° 0 mm 2 mps 744 mmHg 95%
    21:00 -4°C° 0 mm 2 mps 744 mmHg 95%
    22:00 -4°C° 0 mm 2 mps 744 mmHg 95%
    23:00 -4°C° 0 mm 2 mps 744 mmHg 96%

    Day after tomorrow, 16 December, Saturday

    Time Temperature Precipitation Wind Pressure Humidity
    00:00 -4°C° 0 mm 2 mps 744 mmHg 96%
    01:00 -5°C° 0 mm 2 mps 744 mmHg 96%
    02:00 -5°C° 0 mm 2 mps 743 mmHg 96%
    03:00 -5°C° 0 mm 3 mps 743 mmHg 96%
    04:00 -4°C° 0 mm 4 mps 742 mmHg 95%
    05:00 -4°C° 0 mm 5 mps 742 mmHg 95%
    06:00 -2°C° 0.2 mm 5 mps 741 mmHg 92%
    07:00 -2°C° 0.2 mm 6 mps 740 mmHg 90%
    08:00 -1°C° 0.2 mm 6 mps 739 mmHg 88%
    09:00 -1°C° 0.2 mm 6 mps 739 mmHg 89%
    10:00 -1°C° 0.2 mm 6 mps 739 mmHg 90%
    11:00 +1°C° 0.2 mm 6 mps 739 mmHg 90%
    12:00 +1°C° 0 mm 5 mps 739 mmHg 91%
    13:00 +1°C° 0 mm 5 mps 739 mmHg 91%
    14:00 0°C° 0 mm 4 mps 740 mmHg 92%
    15:00 +1°C° 0.1 mm 3 mps 740 mmHg 93%
    16:00 0°C° 0.1 mm 3 mps 740 mmHg 94%
    17:00 +1°C° 0.1 mm 2 mps 740 mmHg 96%
    18:00 +2°C° 0.3 mm 1 mps 740 mmHg 96%
    19:00 +1°C° 0.3 mm 1 mps 739 mmHg 96%
    20:00 +1°C° 0.3 mm 1 mps 739 mmHg 96%
    21:00 +1°C° 0.3 mm 1 mps 739 mmHg 96%
    22:00 +1°C° 0.3 mm 1 mps 739 mmHg 95%
    23:00 -1°C° 0.3 mm 2 mps 739 mmHg 95%

    17 December, Sunday

    Time Temperature Precipitation Wind Pressure Humidity
    00:00 -2°C° 0.1 mm 2 mps 740 mmHg 95%
    01:00 0°C° 0.1 mm 1 mps 740 mmHg 94%
    02:00 -1°C° 0.1 mm 1 mps 741 mmHg 94%
    03:00 -1°C° 0 mm 1 mps 742 mmHg 94%
    04:00 -1°C° 0 mm 1 mps 742 mmHg 94%
    05:00 -2°C° 0 mm 1 mps 743 mmHg 94%
    06:00 -2°C° 0 mm 1 mps 744 mmHg 94%
    07:00 -2°C° 0 mm 1 mps 744 mmHg 94%
    08:00 -2°C° 0 mm 1 mps 745 mmHg 93%
    09:00 -2°C° 0 mm 0 mps 745 mmHg 93%
    10:00 -2°C° 0 mm 0 mps 746 mmHg 92%
    11:00 -2°C° 0 mm 0 mps 746 mmHg 91%
    12:00 -2°C° 0 mm 0 mps 746 mmHg 91%
    13:00 -1°C° 0 mm 1 mps 746 mmHg 92%
    14:00 -1°C° 0 mm 1 mps 746 mmHg 92%
    15:00 -1°C° 0 mm 1 mps 746 mmHg 92%
    16:00 -1°C° 0 mm 1 mps 746 mmHg 93%
    17:00 -3°C° 0 mm 2 mps 746 mmHg 93%
    18:00 -3°C° 0.1 mm 2 mps 746 mmHg 93%
    19:00 -3°C° 0.1 mm 2 mps 745 mmHg 92%
    20:00 -2°C° 0.1 mm 3 mps 745 mmHg 91%
    21:00 -2°C° 0.4 mm 3 mps 744 mmHg 92%
    22:00 -3°C° 0.4 mm 4 mps 744 mmHg 93%
    23:00 -3°C° 0.4 mm 4 mps 743 mmHg 93%

    18 December, Monday

    Time Temperature Precipitation Wind Pressure Humidity
    00:00 -2°C° 1 mm 4 mps 742 mmHg 94%
    01:00 -2°C° 1 mm 4 mps 741 mmHg 95%
    02:00 -2°C° 1 mm 4 mps 741 mmHg 96%
    03:00 -1°C° 1.2 mm 4 mps 740 mmHg 96%
    04:00 -1°C° 1.2 mm 4 mps 739 mmHg 96%
    05:00 0°C° 1.2 mm 3 mps 739 mmHg 96%
    06:00 0°C° 0.7 mm 4 mps 738 mmHg 96%
    07:00 0°C° 0.7 mm 4 mps 738 mmHg 96%
    08:00 0°C° 0.7 mm 4 mps 737 mmHg 96%
    09:00 0°C° 0.4 mm 4 mps 736 mmHg 96%
    10:00 +1°C° 0.4 mm 4 mps 736 mmHg 96%
    11:00 +1°C° 0.4 mm 4 mps 735 mmHg 96%
    12:00 +1°C° 0.3 mm 5 mps 735 mmHg 93%
    13:00 +1°C° 0.3 mm 5 mps 734 mmHg 91%
    14:00 +1°C° 0.3 mm 5 mps 734 mmHg 88%
    15:00 0°C° 0.3 mm 5 mps 734 mmHg 87%
    16:00 -2°C° 0.3 mm 6 mps 735 mmHg 86%
    17:00 -2°C° 0.3 mm 6 mps 735 mmHg 85%
    18:00 -2°C° 0.4 mm 6 mps 736 mmHg 86%
    19:00 -2°C° 0.4 mm 7 mps 737 mmHg 86%
    20:00 -3°C° 0.4 mm 7 mps 738 mmHg 87%
    21:00 -3°C° 0.2 mm 7 mps 739 mmHg 86%
    22:00 -3°C° 0.2 mm 7 mps 740 mmHg 86%
    23:00 -3°C° 0.2 mm 6 mps 741 mmHg 85%

    19 December, Tuesday

    Time Temperature Precipitation Wind Pressure Humidity
    00:00 -4°C° 0.1 mm 6 mps 742 mmHg 85%
    01:00 -4°C° 0.1 mm 6 mps 743 mmHg 85%
    02:00 -4°C° 0.1 mm 6 mps 744 mmHg 86%
    03:00 -4°C° 0.1 mm 5 mps 745 mmHg 86%
    04:00 -4°C° 0.1 mm 5 mps 745 mmHg 87%
    05:00 -3°C° 0.1 mm 4 mps 746 mmHg 88%
    06:00 -3°C° 0.1 mm 4 mps 747 mmHg 88%
    07:00 -3°C° 0.1 mm 4 mps 748 mmHg 89%
    08:00 -2°C° 0.1 mm 3 mps 749 mmHg 90%
    09:00 -2°C° 0.1 mm 3 mps 749 mmHg 90%
    10:00 -2°C° 0.1 mm 3 mps 750 mmHg 90%
    11:00 -4°C° 0.1 mm 3 mps 750 mmHg 90%
    12:00 -3°C° 0.1 mm 2 mps 751 mmHg 90%
    13:00 -3°C° 0.1 mm 2 mps 751 mmHg 91%
    14:00 -1°C° 0.1 mm 1 mps 751 mmHg 91%
    15:00 -1°C° 0 mm 1 mps 751 mmHg 92%
    16:00 -2°C° 0 mm 1 mps 752 mmHg 93%
    17:00 -2°C° 0 mm 1 mps 752 mmHg 94%
    18:00 -2°C° 0.1 mm 1 mps 752 mmHg 95%
    19:00 -2°C° 0.1 mm 1 mps 752 mmHg 95%
    20:00 -2°C° 0.1 mm 1 mps 753 mmHg 96%
    21:00 -3°C° 0 mm 1 mps 753 mmHg 96%
    22:00 -3°C° 0 mm 1 mps 753 mmHg 96%
    23:00 -3°C° 0 mm 1 mps 753 mmHg 96%
    Show more